Location: Trois-Rivi�res
(46.3500°N, 72.5500°W)
Time: 13:58:35
(UTC-04:00)

Daily predictions for brighter satellites

Satellite Brightness Start Highest point End
(mag) Time Altitude Azimuth Time Altitude Azimuth Time Altitude Azimuth
Cosmos 2142 Rocket 4.5 20:19:24 10° S 20:25:31 82° E 20:31:44 10° N
ALOS 4.0 20:22:05 10° SSW 20:26:21 35° W 20:30:40 10° NNW
YAOGAN 6 4.0 20:24:35 10° ESE 20:27:28 22° ENE 20:30:19 10° NNE
Cosmos 1933 3.7 20:27:28 10° SSE 20:31:18 44° E 20:35:09 10° NNE
Cosmos 2026 Rocket 4.1 20:25:41 10° N 20:31:57 89° W 20:38:05 10° S
Cosmos 1992 Rocket 4.0 20:28:01 10° S 20:33:12 66° ESE 20:38:25 10° NNE
Meteor 2-10 Rocket 4.3 20:29:28 10° SSE 20:34:48 39° E 20:40:05 10° NNE
Cosmos 1733 Rocket 3.1 20:33:29 10° N 20:37:58 86° ENE 20:42:26 10° S
Cosmos 2219 Rocket 4.0 20:39:13 10° ESE 20:40:28 11° E 20:41:43 10° E
USA 267 3.3 20:35:00 10° NE 20:41:35 89° SE 20:48:09 10° SW
Cosmos 1862 3.4 20:39:14 10° N 20:43:18 84° W 20:47:20 10° S
Helios 1A 3.1 20:41:10 10° SSE 20:45:25 85° WSW 20:49:42 10° NNW
Okean 1-7 4.5 20:44:12 10° SE 20:47:28 21° E 20:50:44 10° NE
Okean 2 Rocket 4.4 20:46:43 10° NNE 20:50:27 24° ENE 20:53:32 13° ESE
Cosmos 1862 Rocket 3.6 20:46:14 10° S 20:50:42 81° E 20:55:12 10° N
Cosmos 2263 Rocket 2.8 20:52:49 10° NW 20:58:15 55° WSW 21:03:40 10° S
Cosmos 968 Rocket 3.5 20:58:42 10° NNW 21:03:56 90° WSW 21:09:04 11° SSE
USA 186 4.0 21:05:44 10° SSW 21:08:03 22° W 21:10:29 10° NW
Cosmos 1939 Rocket 3.1 21:04:12 10° S 21:08:13 72° WSW 21:12:12 10° NNW
Terra 3.9 21:06:28 10° E 21:08:40 13° ENE 21:10:52 10° NNE
Cosmos 1703 Rocket 3.7 21:07:07 10° S 21:11:25 52° E 21:15:42 10° NNE
Cosmos 2322 Rocket 3.3 21:07:23 10° SW 21:12:47 48° WNW 21:18:16 10° NNE
Cosmos 2237 4.5 21:07:39 10° S 21:13:06 46° ESE 21:18:32 10° NE
Atlas Centaur 2 4.0 21:10:54 10° SW 21:15:56 22° S 21:19:23 16° SE
USA 234 3.3 21:12:08 16° SE 21:17:36 79° SW 21:24:11 10° NW
Abrixas rocket 2.6 21:16:51 10° WNW 21:20:07 59° N 21:22:26 17° E
Cosmos 2360 Rocket 2.2 21:14:39 10° SSW 21:20:19 85° ESE 21:26:02 10° NNE
Cosmos 2266 Rocket 4.0 21:14:41 10° N 21:21:01 79° E 21:27:05 11° SSE
Meteor 1-29 3.7 21:17:59 10° N 21:21:25 56° WNW 21:24:48 10° SSW
MetOp-B 4.3 21:17:56 17° SE 21:22:00 59° ENE 21:27:16 10° N
COSMOS 2428 3.1 21:17:12 10° S 21:22:31 42° ESE 21:27:52 10° NE
MOS 1-B Rocket 4.2 21:19:05 18° SE 21:23:09 48° ENE 21:28:31 10° N
Envisat 3.9 21:19:04 10° S 21:23:57 48° W 21:28:53 10° NNW
Lacrosse 4 Rocket 4.3 21:23:17 10° W 21:25:00 12° WSW 21:26:42 10° SW
Helios 1B rocket 3.5 21:21:07 10° N 21:25:05 48° WNW 21:29:02 10° SW
Cosmos 1867 4.2 21:21:12 10° NW 21:26:28 50° WSW 21:30:53 14° S
ATLAS 5 CENTAUR R/B 3.3 21:24:27 10° NW 21:30:08 45° WSW 21:35:40 13° S
H-2A R/B 2.8 21:28:32 21° ESE 21:31:01 34° ENE 21:35:26 10° N
Cosmos 1844 4.0 21:25:41 10° NNW 21:31:15 52° ENE 21:34:34 23° SE
NOAA 11 4.2 21:29:03 18° SSE 21:33:11 76° ENE 21:38:41 10° N
Meteor 1-14 Rocket 4.4 21:29:57 10° NNW 21:35:39 79° W 21:40:44 14° S
Cosmos 2221 Rocket 3.5 21:32:02 14° S 21:35:49 70° E 21:40:15 10° NNE
YAOGAN 11 4.0 21:33:33 24° SSE 21:36:09 72° ENE 21:40:28 10° N
Meteor 1-25 Rocket 4.1 21:31:08 10° N 21:36:46 80° ENE 21:40:41 20° SSE
Cosmos 2322 3.8 21:32:19 10° SSW 21:38:02 83° WNW 21:43:47 10° NNE
ARGOS 3.2 21:37:29 23° SSE 21:40:49 67° ENE 21:46:10 10° N
Cosmos 1606 3.3 21:42:02 33° ESE 21:42:34 35° E 21:46:02 10° NNE
SL-16 R/B 4.2 21:38:46 10° WSW 21:43:46 31° NW 21:48:49 10° NNE
ERS-1 Rocket 3.4 21:42:02 15° S 21:46:12 61° WSW 21:51:12 10° NNW
Meteor 1-20 Rocket 4.2 21:40:50 10° N 21:46:27 85° E 21:50:10 23° SSE
SeaSat 1 2.6 21:44:57 28° SE 21:47:26 61° ENE 21:52:20 10° NNW
H-2A R/B 3.0 21:53:54 28° E 21:54:59 33° ENE 21:58:54 10° N
Cosmos 1536 4.4 21:54:15 10° NNE 21:57:19 20° ENE 21:57:34 20° ENE
Cosmos 2237 Rocket 3.0 21:58:35 28° ESE 21:59:00 29° ESE 22:03:49 10° NE
Cosmos 1553 Rocket 4.5 21:57:07 29° SE 21:59:35 42° E 22:05:20 10° NNE
Cosmos 1844 Rocket 2.7 21:54:19 10° NNW 21:59:54 78° WSW 22:02:44 30° SSE
Cosmos 2333 4.1 21:54:31 10° SSW 22:00:14 74° ESE 22:06:01 10° NNE
NOSS 3-1 (C) 3.5 21:55:18 10° SSW 22:00:50 49° ESE 22:07:02 10° NE
YAOGAN 6 4.4 21:58:11 12° SSW 22:00:54 27° W 22:04:01 10° NW
Cosmos 2278 Rocket 2.6 21:55:44 10° NNW 22:01:16 50° ENE 22:03:38 31° ESE
Cosmos 2333 Rocket 2.6 22:00:04 32° SSE 22:01:58 41° ESE 22:07:21 10° NE
SPOT 5 2.8 21:59:59 29° S 22:02:24 78° WSW 22:07:00 10° NNW
SL-08 RB Rocket 3.6 22:01:17 36° SSE 22:03:10 85° ENE 22:07:43 10° NNW
Meteor 2-6 Rocket 4.4 22:01:35 26° SSE 22:04:56 63° E 22:10:49 10° NNE
USA 229 DEB 3.9 22:00:18 10° SW 22:07:08 76° NW 22:14:09 10° NE
USA 229 3.9 22:00:24 10° SW 22:07:15 77° NW 22:14:16 10° NE
CZ-4C R/B 3.0 22:00:44 10° NW 22:07:40 66° NE 22:11:50 29° ESE
Iridium 4 Rocket 3.9 22:06:20 10° NNE 22:10:03 31° E 22:10:06 31° E
Cosmos 1898 Rocket 4.1 22:09:40 10° N 22:14:38 43° ENE 22:16:06 35° ESE
Cosmos 1300 Rocket 4.0 22:10:50 10° N 22:15:00 43° ENE 22:15:29 42° E
ASTEX 1 3.6 22:15:27 42° SE 22:16:42 54° E 22:21:33 10° N
NOSS 3-1 (A) 3.6 22:15:18 33° S 22:17:31 48° ESE 22:23:42 10° NE
SPOT 1/Viking Rocket 3.6 22:16:35 36° S 22:18:47 79° WSW 22:24:02 10° NNW
Cosmos 2219 Rocket 2.0 22:20:01 25° SSW 22:23:22 74° ESE 22:29:00 10° NNE
USA 267 4.4 22:18:08 10° NE 22:24:16 44° NNW 22:30:23 10° W
Okean 1-7 4.3 22:21:00 12° SW 22:24:46 40° WNW 22:28:57 10° N
Okean 2 Rocket 4.4 22:24:29 10° NNW 22:28:37 36° W 22:30:55 22° SW
Landsat 7 3.7 22:29:26 53° SSE 22:30:34 90° WSW 22:35:23 10° NNW
S3M 3.9 22:28:27 40° SSE 22:30:41 67° E 22:36:52 10° NNE
Cosmos 1782 3.6 22:30:21 29° SW 22:32:00 49° WNW 22:35:55 10° N
TRAILBLAZER 4.5 22:30:03 28° SW 22:32:28 89° ESE 22:37:03 10° NE
Cosmos 2084 3.4 22:33:34 10° NW 22:37:16 61° WSW 22:37:16 61° WSW
SWAS 4.4 22:34:11 10° NNW 22:38:32 73° WSW 22:38:51 69° SSW
Cosmos 1633 3.0 22:35:37 10° NNW 22:39:13 57° W 22:39:16 57° W
Meteor 2-11 Rocket 4.4 22:38:50 47° SSE 22:40:28 64° E 22:46:30 10° NNE
Cosmos 1378 Rocket 4.3 22:42:17 39° ENE 22:42:17 39° ENE 22:45:51 10° NNE
Cosmos 1602 3.8 22:39:05 10° NNW 22:42:53 68° W 22:42:53 68° W
ATLAS 3B R/B 3.9 22:37:33 10° NNW 22:43:47 34° NNE 22:47:54 18° E
Terra 1.7 22:45:02 67° SSE 22:45:42 90° ENE 22:50:29 10° NNW
Cosmos 1346 Rocket 2.8 22:46:34 77° WNW 22:46:34 77° WNW 22:50:31 10° N
Meteor 1-27 Rocket 3.6 22:46:38 45° SSW 22:48:28 88° W 22:54:05 10° N
Cosmos 468 Rocket 4.2 22:50:38 54° ESE 22:50:38 54° ESE 22:55:45 10° NNE
deb Chang Zheng 4 3.5 22:50:02 10° NNE 22:54:23 83° ENE 22:54:23 83° ENE
Cosmos 2369 Rocket 4.4 22:52:16 10° N 22:55:37 16° NE 22:58:47 10° ENE
Abrixas rocket 4.3 22:53:42 10° WNW 22:55:06 23° W 22:55:06 23° W
Cosmos 2297 3.8 22:51:47 10° NNW 22:57:29 63° ENE 22:58:30 54° ESE
Okean 3 4.0 22:58:23 49° NE 22:58:23 49° NE 23:01:42 10° NNE
CZ-4B R/B 3.5 22:53:48 10° NNE 22:58:07 55° E 22:58:07 55° E
Geosat 3.9 22:55:08 10° NNE 23:00:07 67° ESE 23:00:07 67° ESE
Cosmos 1745 Rocket 4.1 22:54:32 10° NNW 23:00:52 74° W 23:02:51 46° SSW
Spot 4 3.7 23:02:26 73° E 23:02:35 74° ENE 23:07:21 10° N
CARTOSAT-1 3.8 23:02:56 59° WSW 23:03:00 59° W 23:07:18 10° NNW
ATLAS CENTAUR R/B 3.7 23:06:19 14° NE 23:06:19 14° NE 23:06:58 10° NE
Atlas Centaur 2 4.4 22:59:14 10° SW 23:02:01 17° SSW 23:02:01 17° SSW
COSMOS 2428 4.2 23:01:41 10° WSW 23:06:53 35° NW 23:12:07 10° NNE
H-2A R/B 3.2 23:09:09 28° SW 23:10:26 32° W 23:14:52 10° NNW
IGS 5A 4.0 23:10:49 50° W 23:10:49 50° W 23:14:40 10° NNW
Meteor 1-11 Rocket 4.3 23:06:59 10° NNW 23:12:16 47° W 23:13:39 39° SW
Cosmos 2285 Rocket 4.1 23:13:34 54° ESE 23:13:56 55° ESE 23:20:09 10° NNE
Cosmos 2298 Rocket 4.0 23:09:44 10° NNW 23:15:04 72° WSW 23:15:27 69° SW
CZ-4 R/B 3.7 23:10:20 10° NNE 23:15:10 87° WNW 23:15:17 85° SW
Cosmos 1980 3.8 23:13:33 40° SW 23:15:35 71° WNW 23:21:16 10° NNE
Timation 1 Rocket 4.4 23:11:15 10° NW 23:17:10 62° WSW 23:18:00 56° SSW
Okean 1 Rocket 3.5 23:13:41 10° NNW 23:17:55 57° W 23:17:55 57° W
NOSS 0 Rocket 4.2 23:16:17 27° SW 23:19:45 66° WNW 23:25:54 10° NNE
Cosmos 1455 Rocket 4.3 23:16:31 10° N 23:19:56 33° NE 23:19:56 33° NE
Cosmos 1674 Rocket 4.5 23:20:35 40° W 23:21:00 41° WNW 23:25:07 10° N
SL-16 R/B 2.4 23:22:16 53° E 23:22:16 53° E 23:27:18 10° NE
Cosmos 371 Rocket 4.2 23:25:43 39° ENE 23:25:43 39° ENE 23:29:09 10° NNE
SeaSat 1 4.1 23:24:45 21° WSW 23:25:17 21° WSW 23:29:03 10° WNW
H-2A R/B 3.6 23:31:01 27° W 23:31:01 27° W 23:34:43 10° NW
Cosmos 1937 Rocket 3.7 23:26:37 10° NNW 23:31:48 61° WSW 23:31:48 61° WSW
Cosmos 1536 4.2 23:30:12 10° NNW 23:33:19 33° WNW 23:33:19 33° WNW
Cosmos 1340 4.3 23:40:03 31° NNE 23:40:03 31° NNE 23:42:07 10° NNE
Cosmos 990 Rocket 4.2 23:35:30 10° NNW 23:40:20 60° W 23:40:20 60° W
Cosmos 2237 Rocket 3.0 23:40:20 30° WSW 23:42:48 49° WNW 23:48:21 10° NNE
Cosmos 2278 Rocket 3.5 23:40:21 10° NW 23:45:03 28° WSW 23:45:29 27° WSW
Cosmos 332 Rocket 4.0 23:45:45 66° N 23:45:45 66° N 23:49:56 10° NNE
CZ-2C R/B 3.6 23:40:05 10° NNE 23:44:26 36° ENE 23:44:26 36° ENE
Cosmos 1975 Rocket 3.6 23:46:04 57° NNW 23:46:04 57° NNW 23:49:45 10° N
Cosmos 2333 Rocket 3.5 23:41:58 15° WSW 23:46:18 37° NW 23:51:38 10° NNE
ALOS 2 3.6 23:48:06 40° NE 23:48:06 40° NE 23:51:29 10° N
Cosmos 2315 Rocket 3.9 23:51:45 68° SW 23:52:31 78° W 23:58:47 10° N
